contact:dominique.lefevre@mio.osupytheas.fr, maurice.libes@osupytheas.fr, didier.mallarino@osupytheas.fr
Project:EMSO http://www.emso-fr.org/EMSO-France
Depth: 2436.0 m
Title:EMSO Ligure Ouest : Data MII capteur MICROCAT
DateTime_Computer,Latitude,Longitude,Temperature,Conductivity,Pressure,DateTime_Instrument
DateTime_Computer,Latitude,Longitude,degC,S m-1,dbar,DateTime_Instrument
2023-08-22T00:01:26Z,42.805,6.029,13.3075,4.60143,2470.787,2023-8-22T02:03:46Z
2023-08-22T00:04:30Z,42.805,6.029,13.3067,4.60145,2470.777,2023-8-22T02:06:49Z
2023-08-22T00:07:33Z,42.805,6.029,13.3079,4.60139,2470.74,2023-8-22T02:09:52Z
2023-08-22T00:10:36Z,42.805,6.029,13.3080,4.60130,2470.754,2023-8-22T02:12:56Z
2023-08-22T00:13:39Z,42.805,6.029,13.3074,4.60153,2470.717,2023-8-22T02:15:59Z
2023-08-22T00:16:42Z,42.805,6.029,13.3074,4.60129,2470.74,2023-8-22T02:19:02Z
2023-08-22T00:19:45Z,42.805,6.029,13.3061,4.60125,2470.8,2023-8-22T02:22:05Z
2023-08-22T00:22:48Z,42.805,6.029,13.3061,4.60141,2470.74,2023-8-22T02:25:08Z
2023-08-22T00:25:51Z,42.805,6.029,13.3070,4.60156,2470.717,2023-8-22T02:28:11Z
2023-08-22T00:28:54Z,42.805,6.029,13.3052,4.60160,2470.707,2023-8-22T02:31:14Z
2023-08-22T00:31:57Z,42.805,6.029,13.3062,4.60157,2470.717,2023-8-22T02:34:17Z
2023-08-22T00:35:00Z,42.805,6.029,13.3063,4.60170,2470.717,2023-8-22T02:37:20Z
2023-08-22T00:38:03Z,42.805,6.029,13.3056,4.60162,2470.73,2023-8-22T02:40:23Z
2023-08-22T00:41:06Z,42.805,6.029,13.3051,4.60170,2470.73,2023-8-22T02:43:26Z
2023-08-22T00:44:10Z,42.805,6.029,13.3057,4.60174,2470.717,2023-8-22T02:46:29Z
2023-08-22T00:47:13Z,42.805,6.029,13.3050,4.60184,2470.693,2023-8-22T02:49:32Z
2023-08-22T00:50:16Z,42.805,6.029,13.3059,4.60147,2470.73,2023-8-22T02:52:36Z
2023-08-22T00:53:19Z,42.805,6.029,13.3059,4.60176,2470.717,2023-8-22T02:55:39Z
2023-08-22T00:56:22Z,42.805,6.029,13.3063,4.60172,2470.717,2023-8-22T02:58:42Z
2023-08-22T00:59:25Z,42.805,6.029,13.3070,4.60179,2470.73,2023-8-22T03:01:45Z
2023-08-22T01:02:28Z,42.805,6.029,13.3065,4.60164,2470.67,2023-8-22T03:04:48Z
2023-08-22T01:05:31Z,42.805,6.029,13.3066,4.60182,2470.693,2023-8-22T03:07:51Z
2023-08-22T01:08:34Z,42.805,6.029,13.3056,4.60157,2470.73,2023-8-22T03:10:54Z
2023-08-22T01:11:37Z,42.805,6.029,13.3048,4.60159,2470.67,2023-8-22T03:13:57Z
2023-08-22T01:14:40Z,42.805,6.029,13.3056,4.60176,2470.74,2023-8-22T03:17:00Z
2023-08-22T01:17:43Z,42.805,6.029,13.3062,4.60201,2470.693,2023-8-22T03:20:03Z
2023-08-22T01:20:46Z,42.805,6.029,13.3061,4.60163,2470.707,2023-8-22T03:23:06Z
2023-08-22T01:23:50Z,42.805,6.029,13.3050,4.60195,2470.74,2023-8-22T03:26:09Z
2023-08-22T01:26:53Z,42.805,6.029,13.3068,4.60165,2470.707,2023-8-22T03:29:13Z
2023-08-22T01:29:56Z,42.805,6.029,13.3051,4.60183,2470.73,2023-8-22T03:32:16Z
2023-08-22T01:32:59Z,42.805,6.029,13.3069,4.60144,2470.707,2023-8-22T03:35:19Z
2023-08-22T01:36:02Z,42.805,6.029,13.3058,4.60178,2470.693,2023-8-22T03:38:22Z
2023-08-22T01:39:05Z,42.805,6.029,13.3059,4.60192,2470.693,2023-8-22T03:41:25Z
2023-08-22T01:42:08Z,42.805,6.029,13.3066,4.60187,2470.73,2023-8-22T03:44:28Z
2023-08-22T01:45:11Z,42.805,6.029,13.3067,4.60127,2470.717,2023-8-22T03:47:31Z
2023-08-22T01:48:14Z,42.805,6.029,13.3044,4.60148,2470.693,2023-8-22T03:50:34Z
2023-08-22T01:51:17Z,42.805,6.029,13.3044,4.60152,2470.707,2023-8-22T03:53:37Z
2023-08-22T01:54:20Z,42.805,6.029,13.3055,4.60152,2470.73,2023-8-22T03:56:40Z
2023-08-22T01:57:23Z,42.805,6.029,13.3063,4.60144,2470.707,2023-8-22T03:59:43Z
2023-08-22T02:00:27Z,42.805,6.029,13.3067,4.60163,2470.707,2023-8-22T04:02:46Z
2023-08-22T02:03:30Z,42.805,6.029,13.3054,4.60188,2470.707,2023-8-22T04:05:50Z
2023-08-22T02:06:33Z,42.805,6.029,13.3083,4.60157,2470.67,2023-8-22T04:08:53Z
2023-08-22T02:09:36Z,42.805,6.029,13.3051,4.60155,2470.67,2023-8-22T04:11:56Z
2023-08-22T02:12:39Z,42.805,6.029,13.3057,4.60160,2470.684,2023-8-22T04:14:59Z
2023-08-22T02:15:42Z,42.805,6.029,13.3050,4.60197,2470.693,2023-8-22T04:18:02Z
2023-08-22T02:18:45Z,42.805,6.029,13.3076,4.60191,2470.684,2023-8-22T04:21:05Z
2023-08-22T02:21:48Z,42.805,6.029,13.3060,4.60151,2470.707,2023-8-22T04:24:08Z
2023-08-22T02:24:51Z,42.805,6.029,13.3041,4.60144,2470.67,2023-8-22T04:27:11Z
2023-08-22T02:27:54Z,42.805,6.029,13.3042,4.60156,2470.693,2023-8-22T04:30:14Z
2023-08-22T02:30:57Z,42.805,6.029,13.3045,4.60164,2470.693,2023-8-22T04:33:17Z
2023-08-22T02:34:00Z,42.805,6.029,13.3046,4.60179,2470.684,2023-8-22T04:36:20Z
2023-08-22T02:37:03Z,42.805,6.029,13.3058,4.60180,2470.693,2023-8-22T04:39:23Z
2023-08-22T02:40:07Z,42.805,6.029,13.3063,4.60181,2470.684,2023-8-22T04:42:26Z
2023-08-22T02:43:10Z,42.805,6.029,13.3043,4.60135,2470.67,2023-8-22T04:45:30Z
2023-08-22T02:46:13Z,42.805,6.029,13.3041,4.60173,2470.684,2023-8-22T04:48:33Z
2023-08-22T02:49:16Z,42.805,6.029,13.3061,4.60173,2470.646,2023-8-22T04:51:36Z
2023-08-22T02:52:19Z,42.805,6.029,13.3045,4.60132,2470.67,2023-8-22T04:54:39Z
2023-08-22T02:55:22Z,42.805,6.029,13.3048,4.60122,2470.684,2023-8-22T04:57:42Z
2023-08-22T02:58:25Z,42.805,6.029,13.3043,4.60129,2470.684,2023-8-22T05:00:45Z
2023-08-22T03:01:28Z,42.805,6.029,13.3044,4.60183,2470.646,2023-8-22T05:03:48Z
2023-08-22T03:04:31Z,42.805,6.029,13.3052,4.60117,2470.661,2023-8-22T05:06:51Z
2023-08-22T03:07:34Z,42.805,6.029,13.3045,4.60182,2470.661,2023-8-22T05:09:54Z
2023-08-22T03:10:37Z,42.805,6.029,13.3053,4.60147,2470.67,2023-8-22T05:12:57Z
2023-08-22T03:13:40Z,42.805,6.029,13.3058,4.60185,2470.67,2023-8-22T05:16:00Z
2023-08-22T03:16:44Z,42.805,6.029,13.3052,4.60172,2470.684,2023-8-22T05:19:03Z
2023-08-22T03:19:47Z,42.805,6.029,13.3043,4.60150,2470.67,2023-8-22T05:22:07Z
2023-08-22T03:22:50Z,42.805,6.029,13.3041,4.60135,2470.661,2023-8-22T05:25:10Z
2023-08-22T03:25:53Z,42.805,6.029,13.3042,4.60149,2470.661,2023-8-22T05:28:13Z
2023-08-22T03:28:56Z,42.805,6.029,13.3047,4.60146,2470.67,2023-8-22T05:31:16Z
2023-08-22T03:31:59Z,42.805,6.029,13.3043,4.60157,2470.624,2023-8-22T05:34:19Z
2023-08-22T03:35:02Z,42.805,6.029,13.3047,4.60152,2470.624,2023-8-22T05:37:22Z
2023-08-22T03:38:05Z,42.805,6.029,13.3044,4.60147,2470.684,2023-8-22T05:40:25Z
2023-08-22T03:41:08Z,42.805,6.029,13.3050,4.60167,2470.646,2023-8-22T05:43:28Z
2023-08-22T03:44:11Z,42.805,6.029,13.3051,4.60179,2470.646,2023-8-22T05:46:31Z
2023-08-22T03:47:14Z,42.805,6.029,13.3056,4.60195,2470.661,2023-8-22T05:49:34Z
2023-08-22T03:50:17Z,42.805,6.029,13.3048,4.60154,2470.646,2023-8-22T05:52:37Z
2023-08-22T03:53:21Z,42.805,6.029,13.3051,4.60156,2470.646,2023-8-22T05:55:40Z
2023-08-22T03:56:24Z,42.805,6.029,13.3051,4.60157,2470.661,2023-8-22T05:58:43Z
2023-08-22T03:59:27Z,42.805,6.029,13.3061,4.60162,2470.624,2023-8-22T06:01:47Z
2023-08-22T04:02:30Z,42.805,6.029,13.3062,4.60143,2470.624,2023-8-22T06:04:50Z
2023-08-22T04:05:33Z,42.805,6.029,13.3052,4.60137,2470.637,2023-8-22T06:07:53Z
2023-08-22T04:08:36Z,42.805,6.029,13.3044,4.60147,2470.624,2023-8-22T06:10:56Z
2023-08-22T04:11:39Z,42.805,6.029,13.3054,4.60165,2470.661,2023-8-22T06:13:59Z
2023-08-22T04:14:42Z,42.805,6.029,13.3046,4.60170,2470.661,2023-8-22T06:17:02Z
2023-08-22T04:17:45Z,42.805,6.029,13.3051,4.60188,2470.661,2023-8-22T06:20:05Z
2023-08-22T04:20:48Z,42.805,6.029,13.3052,4.60175,2470.624,2023-8-22T06:23:08Z
2023-08-22T04:23:51Z,42.805,6.029,13.3061,4.60175,2470.624,2023-8-22T06:26:11Z
2023-08-22T04:26:54Z,42.805,6.029,13.3057,4.60162,2470.661,2023-8-22T06:29:14Z
2023-08-22T04:29:57Z,42.805,6.029,13.3052,4.60188,2470.637,2023-8-22T06:32:17Z
2023-08-22T04:33:01Z,42.805,6.029,13.3045,4.60186,2470.646,2023-8-22T06:35:20Z
2023-08-22T04:36:04Z,42.805,6.029,13.3046,4.60179,2470.67,2023-8-22T06:38:24Z
2023-08-22T04:39:07Z,42.805,6.029,13.3055,4.60158,2470.637,2023-8-22T06:41:27Z
2023-08-22T04:42:10Z,42.805,6.029,13.3063,4.60172,2470.637,2023-8-22T06:44:30Z
2023-08-22T04:45:13Z,42.805,6.029,13.3079,4.60157,2470.637,2023-8-22T06:47:33Z
2023-08-22T04:48:16Z,42.805,6.029,13.3082,4.60141,2470.646,2023-8-22T06:50:36Z
2023-08-22T04:51:19Z,42.805,6.029,13.3080,4.60166,2470.646,2023-8-22T06:53:39Z
2023-08-22T04:54:22Z,42.805,6.029,13.3046,4.60188,2470.6,2023-8-22T06:56:42Z
2023-08-22T04:57:25Z,42.805,6.029,13.3067,4.60165,2470.661,2023-8-22T06:59:45Z
2023-08-22T05:00:28Z,42.805,6.029,13.3076,4.60152,2470.646,2023-8-22T07:02:48Z
2023-08-22T05:03:31Z,42.805,6.029,13.3055,4.60170,2470.614,2023-8-22T07:05:51Z
2023-08-22T05:06:34Z,42.805,6.029,13.3067,4.60180,2470.661,2023-8-22T07:08:54Z
2023-08-22T05:09:38Z,42.805,6.029,13.3063,4.60168,2470.637,2023-8-22T07:11:57Z
2023-08-22T05:12:41Z,42.805,6.029,13.3080,4.60156,2470.614,2023-8-22T07:15:01Z
2023-08-22T05:15:44Z,42.805,6.029,13.3076,4.60134,2470.614,2023-8-22T07:18:04Z
2023-08-22T05:18:47Z,42.805,6.029,13.3083,4.60170,2470.614,2023-8-22T07:21:07Z
2023-08-22T05:21:50Z,42.805,6.029,13.3066,4.60198,2470.624,2023-8-22T07:24:10Z
2023-08-22T05:24:53Z,42.805,6.029,13.3084,4.60143,2470.637,2023-8-22T07:27:13Z
2023-08-22T05:27:56Z,42.805,6.029,13.3107,4.60178,2470.624,2023-8-22T07:30:16Z
2023-08-22T05:30:59Z,42.805,6.029,13.3098,4.60193,2470.6,2023-8-22T07:33:19Z
2023-08-22T05:34:02Z,42.805,6.029,13.3101,4.60167,2470.637,2023-8-22T07:36:22Z
2023-08-22T05:37:05Z,42.805,6.029,13.3075,4.60170,2470.637,2023-8-22T07:39:25Z
2023-08-22T05:40:08Z,42.805,6.029,13.3088,4.60145,2470.637,2023-8-22T07:42:28Z
2023-08-22T05:43:11Z,42.805,6.029,13.3063,4.60144,2470.614,2023-8-22T07:45:31Z
2023-08-22T05:46:15Z,42.805,6.029,13.3093,4.60160,2470.624,2023-8-22T07:48:34Z
2023-08-22T05:49:18Z,42.805,6.029,13.3090,4.60157,2470.624,2023-8-22T07:51:38Z
2023-08-22T05:52:21Z,42.805,6.029,13.3091,4.60205,2470.624,2023-8-22T07:54:41Z
2023-08-22T05:55:24Z,42.805,6.029,13.3109,4.60174,2470.624,2023-8-22T07:57:44Z
2023-08-22T05:58:27Z,42.805,6.029,13.3068,4.60196,2470.6,2023-8-22T08:00:47Z
2023-08-22T06:01:30Z,42.805,6.029,13.3083,4.60158,2470.661,2023-8-22T08:03:50Z
2023-08-22T06:04:33Z,42.805,6.029,13.3083,4.60180,2470.661,2023-8-22T08:06:53Z
2023-08-22T06:07:36Z,42.805,6.029,13.3090,4.60140,2470.646,2023-8-22T08:09:56Z
2023-08-22T06:10:39Z,42.805,6.029,13.3076,4.60197,2470.637,2023-8-22T08:12:59Z
2023-08-22T06:13:42Z,42.805,6.029,13.3113,4.60127,2470.624,2023-8-22T08:16:02Z
2023-08-22T06:16:45Z,42.805,6.029,13.3054,4.60155,2470.67,2023-8-22T08:19:05Z
2023-08-22T06:19:48Z,42.805,6.029,13.3055,4.60122,2470.646,2023-8-22T08:22:08Z
2023-08-22T06:22:51Z,42.805,6.029,13.3104,4.60129,2470.67,2023-8-22T08:25:11Z
2023-08-22T06:25:55Z,42.805,6.029,13.3094,4.60110,2470.637,2023-8-22T08:28:14Z
2023-08-22T06:28:58Z,42.805,6.029,13.3064,4.60145,2470.646,2023-8-22T08:31:18Z
2023-08-22T06:32:00Z,42.805,6.029,13.3073,4.60134,2470.646,2023-8-22T08:34:20Z
2023-08-22T06:35:03Z,42.805,6.029,13.3079,4.60151,2470.661,2023-8-22T08:37:23Z
2023-08-22T06:38:06Z,42.805,6.029,13.3078,4.60135,2470.684,2023-8-22T08:40:26Z
2023-08-22T06:41:09Z,42.805,6.029,13.3090,4.60138,2470.646,2023-8-22T08:43:29Z
2023-08-22T06:44:12Z,42.805,6.029,13.3101,4.60132,2470.661,2023-8-22T08:46:32Z
2023-08-22T06:47:15Z,42.805,6.029,13.3078,4.60156,2470.684,2023-8-22T08:49:35Z
2023-08-22T06:50:18Z,42.805,6.029,13.3081,4.60107,2470.624,2023-8-22T08:52:38Z
2023-08-22T06:53:21Z,42.805,6.029,13.3080,4.60125,2470.67,2023-8-22T08:55:41Z
2023-08-22T06:56:25Z,42.805,6.029,13.3069,4.60125,2470.624,2023-8-22T08:58:44Z
2023-08-22T06:59:28Z,42.805,6.029,13.3073,4.60120,2470.661,2023-8-22T09:01:48Z
2023-08-22T07:02:31Z,42.805,6.029,13.3065,4.60167,2470.684,2023-8-22T09:04:51Z
2023-08-22T07:05:34Z,42.805,6.029,13.3059,4.60132,2470.67,2023-8-22T09:07:54Z
2023-08-22T07:08:37Z,42.805,6.029,13.3095,4.60110,2470.67,2023-8-22T09:10:57Z
2023-08-22T07:11:40Z,42.805,6.029,13.3079,4.60128,2470.67,2023-8-22T09:14:00Z
2023-08-22T07:14:43Z,42.805,6.029,13.3075,4.60123,2470.661,2023-8-22T09:17:03Z
2023-08-22T07:17:46Z,42.805,6.029,13.3054,4.60125,2470.693,2023-8-22T09:20:06Z
2023-08-22T07:20:49Z,42.805,6.029,13.3077,4.60136,2470.707,2023-8-22T09:23:09Z
2023-08-22T07:23:52Z,42.805,6.029,13.3076,4.60140,2470.693,2023-8-22T09:26:12Z
2023-08-22T07:26:55Z,42.805,6.029,13.3078,4.60127,2470.684,2023-8-22T09:29:15Z
2023-08-22T07:29:58Z,42.805,6.029,13.3082,4.60139,2470.684,2023-8-22T09:32:18Z
2023-08-22T07:33:02Z,42.805,6.029,13.3082,4.60128,2470.684,2023-8-22T09:35:21Z
2023-08-22T07:36:05Z,42.805,6.029,13.3061,4.60144,2470.693,2023-8-22T09:38:25Z
2023-08-22T07:39:08Z,42.805,6.029,13.3106,4.60129,2470.661,2023-8-22T09:41:28Z
2023-08-22T07:42:11Z,42.805,6.029,13.3083,4.60124,2470.693,2023-8-22T09:44:31Z
2023-08-22T07:45:14Z,42.805,6.029,13.3069,4.60118,2470.684,2023-8-22T09:47:34Z
2023-08-22T07:48:17Z,42.805,6.029,13.3080,4.60128,2470.67,2023-8-22T09:50:37Z
2023-08-22T07:51:20Z,42.805,6.029,13.3061,4.60127,2470.693,2023-8-22T09:53:40Z
2023-08-22T07:54:23Z,42.805,6.029,13.3076,4.60114,2470.693,2023-8-22T09:56:43Z
2023-08-22T07:57:26Z,42.805,6.029,13.3076,4.60119,2470.707,2023-8-22T09:59:46Z
2023-08-22T08:00:29Z,42.805,6.029,13.3081,4.60125,2470.707,2023-8-22T10:02:49Z
2023-08-22T08:03:32Z,42.805,6.029,13.3073,4.60139,2470.707,2023-8-22T10:05:52Z
2023-08-22T08:06:35Z,42.805,6.029,13.3082,4.60129,2470.73,2023-8-22T10:08:55Z
2023-08-22T08:09:39Z,42.805,6.029,13.3071,4.60116,2470.717,2023-8-22T10:11:58Z
2023-08-22T08:12:42Z,42.805,6.029,13.3085,4.60123,2470.73,2023-8-22T10:15:02Z
2023-08-22T08:15:45Z,42.805,6.029,13.3061,4.60131,2470.73,2023-8-22T10:18:05Z
2023-08-22T08:18:48Z,42.805,6.029,13.3061,4.60110,2470.717,2023-8-22T10:21:08Z
2023-08-22T08:21:51Z,42.805,6.029,13.3061,4.60110,2470.717,2023-8-22T10:24:11Z
2023-08-22T08:24:54Z,42.805,6.029,13.3049,4.60113,2470.73,2023-8-22T10:27:14Z
2023-08-22T08:27:57Z,42.805,6.029,13.3060,4.60117,2470.73,2023-8-22T10:30:17Z
2023-08-22T08:30:59Z,42.805,6.029,13.3056,4.60110,2470.717,2023-8-22T10:33:18Z
2023-08-22T08:34:02Z,42.805,6.029,13.3044,4.60117,2470.707,2023-8-22T10:36:22Z
2023-08-22T08:37:05Z,42.805,6.029,13.3058,4.60134,2470.73,2023-8-22T10:39:25Z
2023-08-22T08:40:08Z,42.805,6.029,13.3078,4.60106,2470.791,2023-8-22T10:42:28Z
2023-08-22T08:43:11Z,42.805,6.029,13.3047,4.60157,2470.763,2023-8-22T10:45:31Z
2023-08-22T08:46:14Z,42.805,6.029,13.3059,4.60122,2470.717,2023-8-22T10:48:34Z
2023-08-22T08:49:17Z,42.805,6.029,13.3069,4.60127,2470.754,2023-8-22T10:51:37Z
2023-08-22T08:52:20Z,42.805,6.029,13.3069,4.60133,2470.717,2023-8-22T10:54:40Z
2023-08-22T08:55:23Z,42.805,6.029,13.3069,4.60129,2470.717,2023-8-22T10:57:43Z
2023-08-22T08:58:26Z,42.805,6.029,13.3067,4.60131,2470.717,2023-8-22T11:00:46Z
2023-08-22T09:01:29Z,42.805,6.029,13.3069,4.60119,2470.74,2023-8-22T11:03:49Z
2023-08-22T09:04:33Z,42.805,6.029,13.3058,4.60123,2470.74,2023-8-22T11:06:52Z
2023-08-22T09:07:36Z,42.805,6.029,13.3063,4.60119,2470.763,2023-8-22T11:09:56Z
2023-08-22T09:10:39Z,42.805,6.029,13.3068,4.60110,2470.754,2023-8-22T11:12:59Z
2023-08-22T09:13:42Z,42.805,6.029,13.3066,4.60121,2470.754,2023-8-22T11:16:02Z
2023-08-22T09:16:45Z,42.805,6.029,13.3061,4.60114,2470.73,2023-8-22T11:19:05Z
2023-08-22T09:19:48Z,42.805,6.029,13.3061,4.60127,2470.74,2023-8-22T11:22:08Z
2023-08-22T09:22:51Z,42.805,6.029,13.3061,4.60121,2470.754,2023-8-22T11:25:11Z
2023-08-22T09:25:54Z,42.805,6.029,13.3073,4.60114,2470.74,2023-8-22T11:28:14Z
2023-08-22T09:28:57Z,42.805,6.029,13.3057,4.60116,2470.763,2023-8-22T11:31:17Z
2023-08-22T09:32:00Z,42.805,6.029,13.3067,4.60113,2470.777,2023-8-22T11:34:20Z
2023-08-22T09:35:03Z,42.805,6.029,13.3056,4.60114,2470.74,2023-8-22T11:37:23Z
2023-08-22T09:38:06Z,42.805,6.029,13.3093,4.60125,2470.763,2023-8-22T11:40:26Z
2023-08-22T09:41:10Z,42.805,6.029,13.3051,4.60111,2470.787,2023-8-22T11:43:29Z
2023-08-22T09:44:13Z,42.805,6.029,13.3053,4.60117,2470.74,2023-8-22T11:46:33Z
2023-08-22T09:47:16Z,42.805,6.029,13.3056,4.60115,2470.777,2023-8-22T11:49:36Z
2023-08-22T09:50:19Z,42.805,6.029,13.3067,4.60121,2470.754,2023-8-22T11:52:39Z
2023-08-22T09:53:22Z,42.805,6.029,13.3069,4.60110,2470.763,2023-8-22T11:55:42Z
2023-08-22T09:56:25Z,42.805,6.029,13.3063,4.60121,2470.754,2023-8-22T11:58:45Z
2023-08-22T09:59:28Z,42.805,6.029,13.3067,4.60128,2470.754,2023-8-22T12:01:48Z
2023-08-22T10:02:31Z,42.805,6.029,13.3070,4.60119,2470.763,2023-8-22T12:04:51Z
2023-08-22T10:05:34Z,42.805,6.029,13.3075,4.60118,2470.763,2023-8-22T12:07:54Z
2023-08-22T10:08:37Z,42.805,6.029,13.3103,4.60131,2470.74,2023-8-22T12:10:57Z
2023-08-22T10:11:40Z,42.805,6.029,13.3067,4.60144,2470.777,2023-8-22T12:14:00Z
2023-08-22T10:14:43Z,42.805,6.029,13.3062,4.60119,2470.754,2023-8-22T12:17:03Z
2023-08-22T10:17:47Z,42.805,6.029,13.3058,4.60140,2470.763,2023-8-22T12:20:06Z
2023-08-22T10:20:50Z,42.805,6.029,13.3066,4.60122,2470.74,2023-8-22T12:23:10Z
2023-08-22T10:23:53Z,42.805,6.029,13.3066,4.60123,2470.763,2023-8-22T12:26:13Z
2023-08-22T10:26:56Z,42.805,6.029,13.3087,4.60121,2470.777,2023-8-22T12:29:16Z
2023-08-22T10:29:59Z,42.805,6.029,13.3059,4.60122,2470.777,2023-8-22T12:32:19Z
2023-08-22T10:33:02Z,42.805,6.029,13.3068,4.60114,2470.777,2023-8-22T12:35:22Z
2023-08-22T10:36:05Z,42.805,6.029,13.3063,4.60115,2470.787,2023-8-22T12:38:25Z
2023-08-22T10:39:08Z,42.805,6.029,13.3061,4.60121,2470.763,2023-8-22T12:41:28Z
2023-08-22T10:42:11Z,42.805,6.029,13.3073,4.60132,2470.74,2023-8-22T12:44:31Z
2023-08-22T10:45:14Z,42.805,6.029,13.3088,4.60139,2470.763,2023-8-22T12:47:34Z
2023-08-22T10:48:17Z,42.805,6.029,13.3039,4.60141,2470.787,2023-8-22T12:50:37Z
2023-08-22T10:51:21Z,42.805,6.029,13.3078,4.60127,2470.693,2023-8-22T12:53:40Z
2023-08-22T10:54:24Z,42.805,6.029,13.3036,4.60130,2470.787,2023-8-22T12:56:44Z
2023-08-22T10:57:27Z,42.805,6.029,13.3052,4.60139,2470.754,2023-8-22T12:59:47Z
2023-08-22T11:00:30Z,42.805,6.029,13.3089,4.60117,2470.763,2023-8-22T13:02:50Z
2023-08-22T11:03:33Z,42.805,6.029,13.3059,4.60127,2470.763,2023-8-22T13:05:53Z
2023-08-22T11:06:36Z,42.805,6.029,13.3092,4.60120,2470.763,2023-8-22T13:08:56Z
2023-08-22T11:09:39Z,42.805,6.029,13.3077,4.60125,2470.754,2023-8-22T13:11:59Z
2023-08-22T11:12:42Z,42.805,6.029,13.3064,4.60130,2470.763,2023-8-22T13:15:02Z
2023-08-22T11:15:45Z,42.805,6.029,13.3054,4.60119,2470.73,2023-8-22T13:18:05Z
2023-08-22T11:18:48Z,42.805,6.029,13.3056,4.60114,2470.75,2023-8-22T13:21:08Z
2023-08-22T11:21:51Z,42.805,6.029,13.3058,4.60121,2470.754,2023-8-22T13:24:11Z
2023-08-22T11:24:54Z,42.805,6.029,13.3066,4.60120,2470.717,2023-8-22T13:27:14Z
2023-08-22T11:27:58Z,42.805,6.029,13.3047,4.60117,2470.777,2023-8-22T13:30:18Z
2023-08-22T11:31:01Z,42.805,6.029,13.3031,4.60127,2470.74,2023-8-22T13:33:21Z
2023-08-22T11:34:04Z,42.805,6.029,13.3027,4.60111,2470.763,2023-8-22T13:36:24Z
2023-08-22T11:37:07Z,42.805,6.029,13.3031,4.60108,2470.763,2023-8-22T13:39:27Z
2023-08-22T11:40:10Z,42.805,6.029,13.3035,4.60101,2470.777,2023-8-22T13:42:30Z
2023-08-22T11:43:13Z,42.805,6.029,13.3029,4.60101,2470.74,2023-8-22T13:45:33Z
2023-08-22T11:46:16Z,42.805,6.029,13.3035,4.60104,2470.726,2023-8-22T13:48:36Z
2023-08-22T11:49:19Z,42.805,6.029,13.3050,4.60106,2470.74,2023-8-22T13:51:39Z
2023-08-22T11:52:22Z,42.805,6.029,13.3034,4.60113,2470.717,2023-8-22T13:54:42Z
2023-08-22T11:55:25Z,42.805,6.029,13.3033,4.60102,2470.763,2023-8-22T13:57:45Z
2023-08-22T11:58:28Z,42.805,6.029,13.3031,4.60101,2470.777,2023-8-22T14:00:48Z
2023-08-22T12:01:32Z,42.805,6.029,13.3033,4.60104,2470.754,2023-8-22T14:03:51Z
2023-08-22T12:04:35Z,42.805,6.029,13.3030,4.60110,2470.777,2023-8-22T14:06:55Z
2023-08-22T12:07:38Z,42.805,6.029,13.3030,4.60102,2470.763,2023-8-22T14:09:58Z
2023-08-22T12:10:41Z,42.805,6.029,13.3029,4.60102,2470.754,2023-8-22T14:13:01Z
2023-08-22T12:13:44Z,42.805,6.029,13.3028,4.60105,2470.763,2023-8-22T14:16:04Z
2023-08-22T12:16:47Z,42.805,6.029,13.3029,4.60102,2470.754,2023-8-22T14:19:07Z
2023-08-22T12:19:50Z,42.805,6.029,13.3029,4.60102,2470.74,2023-8-22T14:22:10Z
2023-08-22T12:22:53Z,42.805,6.029,13.3030,4.60097,2470.73,2023-8-22T14:25:13Z
2023-08-22T12:25:56Z,42.805,6.029,13.3033,4.60103,2470.73,2023-8-22T14:28:16Z
2023-08-22T12:28:59Z,42.805,6.029,13.3030,4.60104,2470.717,2023-8-22T14:31:19Z
2023-08-22T12:32:04Z,42.805,6.029,13.3029,4.60109,2470.754,2023-8-22T14:34:24Z
2023-08-22T12:35:07Z,42.805,6.029,13.3029,4.60099,2470.717,2023-8-22T14:37:27Z
2023-08-22T12:38:10Z,42.805,6.029,13.3031,4.60098,2470.717,2023-8-22T14:40:30Z
2023-08-22T12:41:13Z,42.805,6.029,13.3034,4.60098,2470.717,2023-8-22T14:43:33Z
2023-08-22T12:44:16Z,42.805,6.029,13.3031,4.60098,2470.73,2023-8-22T14:46:36Z
2023-08-22T12:47:20Z,42.805,6.029,13.3031,4.60098,2470.717,2023-8-22T14:49:40Z
2023-08-22T12:50:23Z,42.805,6.029,13.3030,4.60097,2470.717,2023-8-22T14:52:43Z
2023-08-22T12:53:26Z,42.805,6.029,13.3032,4.60098,2470.717,2023-8-22T14:55:46Z
2023-08-22T12:56:29Z,42.805,6.029,13.3034,4.60095,2470.693,2023-8-22T14:58:49Z
2023-08-22T12:59:32Z,42.805,6.029,13.3030,4.60099,2470.707,2023-8-22T15:01:52Z
2023-08-22T13:02:35Z,42.805,6.029,13.3031,4.60101,2470.707,2023-8-22T15:04:55Z
2023-08-22T13:05:38Z,42.805,6.029,13.3029,4.60106,2470.74,2023-8-22T15:07:58Z
2023-08-22T13:08:41Z,42.805,6.029,13.3028,4.60098,2470.693,2023-8-22T15:11:01Z
2023-08-22T13:11:44Z,42.805,6.029,13.3031,4.60097,2470.73,2023-8-22T15:14:04Z
2023-08-22T13:14:47Z,42.805,6.029,13.3031,4.60097,2470.693,2023-8-22T15:17:07Z
2023-08-22T13:17:50Z,42.805,6.029,13.3033,4.60104,2470.693,2023-8-22T15:20:10Z
2023-08-22T13:20:54Z,42.805,6.029,13.3029,4.60102,2470.684,2023-8-22T15:23:13Z
2023-08-22T13:23:57Z,42.805,6.029,13.3029,4.60098,2470.73,2023-8-22T15:26:17Z
2023-08-22T13:27:00Z,42.805,6.029,13.3035,4.60094,2470.707,2023-8-22T15:29:20Z
2023-08-22T13:30:03Z,42.805,6.029,13.3034,4.60106,2470.693,2023-8-22T15:32:23Z
2023-08-22T13:33:06Z,42.805,6.029,13.3031,4.60111,2470.693,2023-8-22T15:35:26Z
2023-08-22T13:36:09Z,42.805,6.029,13.3033,4.60103,2470.693,2023-8-22T15:38:29Z
2023-08-22T13:39:12Z,42.805,6.029,13.3031,4.60104,2470.707,2023-8-22T15:41:32Z
2023-08-22T13:42:15Z,42.805,6.029,13.3032,4.60102,2470.693,2023-8-22T15:44:35Z
2023-08-22T13:45:18Z,42.805,6.029,13.3031,4.60097,2470.693,2023-8-22T15:47:38Z
2023-08-22T13:48:21Z,42.805,6.029,13.3031,4.60100,2470.717,2023-8-22T15:50:41Z
2023-08-22T13:51:24Z,42.805,6.029,13.3032,4.60094,2470.693,2023-8-22T15:53:44Z
2023-08-22T13:54:27Z,42.805,6.029,13.3033,4.60096,2470.717,2023-8-22T15:56:47Z
2023-08-22T13:57:31Z,42.805,6.029,13.3032,4.60092,2470.684,2023-8-22T15:59:51Z
2023-08-22T14:00:34Z,42.805,6.029,13.3034,4.60094,2470.67,2023-8-22T16:02:54Z
2023-08-22T14:03:37Z,42.805,6.029,13.3031,4.60095,2470.684,2023-8-22T16:05:57Z
2023-08-22T14:06:40Z,42.805,6.029,13.3034,4.60103,2470.67,2023-8-22T16:09:00Z
2023-08-22T14:09:43Z,42.805,6.029,13.3033,4.60092,2470.684,2023-8-22T16:12:03Z
2023-08-22T14:12:46Z,42.805,6.029,13.3033,4.60093,2470.693,2023-8-22T16:15:06Z
2023-08-22T14:15:49Z,42.805,6.029,13.3033,4.60094,2470.707,2023-8-22T16:18:09Z
2023-08-22T14:18:52Z,42.805,6.029,13.3031,4.60092,2470.646,2023-8-22T16:21:12Z
2023-08-22T14:21:55Z,42.805,6.029,13.3028,4.60091,2470.67,2023-8-22T16:24:15Z
2023-08-22T14:24:58Z,42.805,6.029,13.3032,4.60093,2470.67,2023-8-22T16:27:18Z
2023-08-22T14:28:01Z,42.805,6.029,13.3034,4.60092,2470.67,2023-8-22T16:30:21Z
2023-08-22T14:31:04Z,42.805,6.029,13.3033,4.60093,2470.67,2023-8-22T16:33:24Z
2023-08-22T14:34:07Z,42.805,6.029,13.3034,4.60108,2470.646,2023-8-22T16:36:27Z
2023-08-22T14:37:10Z,42.805,6.029,13.3034,4.60094,2470.661,2023-8-22T16:39:30Z
2023-08-22T14:40:13Z,42.805,6.029,13.3030,4.60094,2470.646,2023-8-22T16:42:33Z
2023-08-22T14:43:16Z,42.805,6.029,13.3032,4.60110,2470.67,2023-8-22T16:45:36Z
2023-08-22T14:46:19Z,42.805,6.029,13.3034,4.60094,2470.67,2023-8-22T16:48:39Z
2023-08-22T14:49:22Z,42.805,6.029,13.3030,4.60095,2470.624,2023-8-22T16:51:42Z
2023-08-22T14:52:25Z,42.805,6.029,13.3031,4.60093,2470.67,2023-8-22T16:54:45Z
2023-08-22T14:55:29Z,42.805,6.029,13.3029,4.60093,2470.61,2023-8-22T16:57:48Z
2023-08-22T14:58:32Z,42.805,6.029,13.3034,4.60095,2470.661,2023-8-22T17:00:52Z
2023-08-22T15:01:35Z,42.805,6.029,13.3032,4.60095,2470.661,2023-8-22T17:03:55Z
2023-08-22T15:04:38Z,42.805,6.029,13.3031,4.60092,2470.67,2023-8-22T17:06:58Z
2023-08-22T15:07:41Z,42.805,6.029,13.3031,4.60092,2470.646,2023-8-22T17:10:01Z
2023-08-22T15:10:44Z,42.805,6.029,13.3035,4.60094,2470.684,2023-8-22T17:13:04Z